[[{"header":{"parameterUnit":"m.s-1","parameterCategory":1,"la1":30.2991,"la2":30.254,"lo1":-89.0895,"lo2":-89.0444,"dy":0.0017,"dx":0.0017,"nx":28,"ny":28,"refTime":"2024-06-02T09:00:00:Z","depth":0,"parameterNumber":2,"parameterNumberName":"U-component_of_WINDS"},"data":[0,0,0,0,0,0,0,0,0,0,0,0,0,0,0,0,0,0,0,0,0,0,0,0,0,0,0,0,0,0,0,0,0,0,0,0,0,0,0,0,0,0,0,0,0,0,0,0,0,0,0,0,0,0,0,0,0,0,-4.9667,-4.9666,0,-4.9612,-4.9611,-4.9611,-4.9493,-4.9491,-4.9488,-4.9486,-4.9433,-4.9434,-4.9434,0,0,0,0,0,0,0,0,0,0,0,0,0,-4.9674,-4.9675,-4.9667,-4.9666,-4.9666,-4.9612,-4.9611,-4.9611,-4.9494,-4.9491,-4.9488,-4.9485,-4.9433,-4.9434,-4.9435,0,0,0,0,0,0,0,0,0,0,0,0,0,-4.9651,-4.9675,-4.9667,-4.9601,-4.9594,-4.9612,-4.9611,-4.961,-4.9494,-4.9491,-4.9487,-4.9484,-4.9432,-4.9433,-4.9435,-4.9514,0,0,-4.9438,-4.9439,0,0,0,0,0,0,0,0,-4.9652,-4.9651,-4.9611,-4.9605,-4.9598,-4.9556,-4.9594,-4.9578,-4.9495,-4.9532,-4.9486,-4.9482,-4.9477,-4.9474,-4.9472,-4.9511,-4.9509,-4.9438,-4.9439,-4.944,-4.944,0,0,0,0,0,0,0,-4.9654,-4.9652,-4.9645,-4.9611,-4.9603,-4.9575,-4.9568,-4.9591,-4.9525,-4.9529,-4.952,-4.9515,-4.9473,-4.9471,-4.947,-4.9508,-4.9438,-4.9439,-4.944,-4.9441,-4.9609,-4.9613,0,0,0,0,0,0,-4.9665,-4.9654,-4.9647,-4.9644,-4.9617,-4.9578,-4.9569,-4.9573,-4.9525,-4.9514,-4.9518,-4.951,-4.9471,-4.9468,-4.9467,-4.9555,-4.944,-4.9441,-4.9442,-4.9606,-4.961,-4.9614,0,0,0,0,0,0,-4.9665,-4.9665,-4.9649,-4.9647,-4.9642,-4.9581,-4.9586,-4.9574,-4.9572,-4.9517,-4.9505,-4.9528,-4.9468,-4.9466,-4.9503,-4.9552,-4.9441,-4.9442,-4.9601,-4.9607,-4.9612,-4.9734,0,0,0,0,0,0,-4.9666,-4.9666,-4.9695,-4.9648,-4.9643,-4.9685,-4.9589,-4.9575,-4.9574,-4.9562,-4.9523,-4.9513,-4.9465,-4.9502,-4.9504,-4.9552,-4.9443,-4.9597,-4.9604,-4.9611,-4.9725,-4.9743,-4.9758,0,0,0,0,0,-4.9667,-4.9732,-4.9697,-4.9696,-4.9677,-4.9688,-4.9685,-4.9627,-4.9578,-4.9607,-4.9572,-4.9514,-4.9547,-4.9506,-4.9508,-4.9557,-4.9593,-4.9602,-4.961,-4.9717,-4.9739,-4.9758,0,0,0,0,0,0,-4.9786,-4.9724,-4.9685,-4.9736,-4.9718,-4.9668,-4.9702,-4.9652,-4.9648,-4.9638,-4.9567,-4.956,-4.9606,-4.9586,-4.9541,-4.9631,-4.9561,-4.957,-4.9642,-4.9662,-4.9678,-4.9681,-4.9444,0,0,0,0,0,-4.9819,-4.9832,-4.9777,-4.9828,-4.9821,-4.9764,-4.9766,-4.9723,-4.9702,-4.9694,-4.9661,-4.9644,-4.965,-4.9655,-4.9658,-4.9722,-4.9712,-4.9757,-4.9774,-4.9787,-4.9796,-4.9827,-4.9846,-4.9642,-4.9642,-4.9642,0,0,-4.9886,-4.9854,-4.9866,-4.9851,-4.9832,-4.9848,-4.9758,-4.9778,-4.9789,-4.9697,-4.9729,-4.9706,-4.9681,-4.9732,-4.9753,-4.9716,-4.985,-4.9798,-4.981,-4.981,-4.9838,-4.9857,-4.9875,-4.9648,-4.9647,-4.9646,0,0,-5.0015,-4.9992,-5.0031,-5.0014,-4.9986,-4.9948,-4.9958,-4.9915,-4.9895,-4.9927,-4.9858,-4.9871,-4.9883,-4.9868,-4.9863,-4.9988,-4.9935,-4.9992,-5.0077,-5.0109,-5.0125,-5.0139,-5.0182,-5.0199,-5.0001,-5.0001,-5.0001,0,-5.0102,-5.0121,-5.0059,-5.0083,-5.0078,-4.9996,-5.0036,-5.0022,-4.9998,-4.9997,-4.9957,-4.997,-4.9948,-4.9994,-5.0024,-5.0023,-5.0032,-4.9994,-5.0128,-5.0141,-5.0153,-5.0193,-5.021,-5.0008,-5.0007,-5.0006,-5.0006,0,-5.0229,-5.0244,-5.0279,-5.0255,-5.0256,-5.0288,-5.0231,-5.0239,-5.0197,-5.0164,-5.0197,-5.0168,-5.0163,-5.0171,-5.0131,-5.0212,-5.019,-5.014,-5.0068,-5.018,-5.0217,-5.0232,-5.0018,-5.0015,-5.0013,-5.0011,0,0,-5.0429,-5.0371,-5.0385,-5.0373,-5.0337,-5.0348,-5.0378,-5.0372,-5.0379,-5.0366,-5.0388,-5.0401,-5.0355,-5.0348,-5.0306,-5.0335,-5.0434,-5.0281,-5.0279,-5.0308,-5.052,-5.0556,-5.0575,-5.04,-5.0403,-5.0405,-5.0521,0,-5.0548,-5.0593,-5.0538,-5.0595,-5.0608,-5.0531,-5.0556,-5.0537,-5.0508,-5.0515,-5.0482,-5.0492,-5.043,-5.0426,-5.0451,-5.0417,-5.0476,-5.0408,-5.042,-5.0421,-5.0425,-5.0594,-5.0632,-5.0744,-5.0536,-5.0538,-5.054,0,-5.0692,-5.0684,-5.0742,-5.0702,-5.0706,-5.0729,-5.0719,-5.0728,-5.0706,-5.0682,-5.0676,-5.0625,-5.0652,-5.0584,-5.0619,-5.0575,-5.0577,-5.0561,-5.0564,-5.0561,-5.0485,-5.0594,-5.0778,-5.0794,-5.0562,-5.056,-5.0559,0,-5.083,-5.0835,-5.0869,-5.0862,-5.0817,-5.0835,-5.0818,-5.0792,-5.0792,-5.0785,-5.0784,-5.0781,-5.0778,-5.0777,-5.0727,-5.0683,-5.0769,-5.0697,-5.0749,-5.0751,-5.0769,-5.0768,-5.0953,-5.0775,-5.0775,-5.0774,-5.0774,0,-5.0968,-5.1006,-5.093,-5.0952,-5.0992,-5.0931,-5.0973,-5.0948,-5.0926,-5.0941,-5.0876,-5.0892,-5.0826,-5.0836,-5.0797,-5.0832,-5.0832,-5.0814,-5.0802,-5.0818,-5.082,-5.0816,-5.0806,-5.0779,-5.0778,-5.0777,-5.0776,0,-5.1127,-5.1079,-5.1111,-5.1066,-5.1056,-5.1088,-5.1049,-5.1068,-5.1034,-5.1055,-5.1056,-5.1004,-5.1012,-5.0963,-5.0962,-5.0936,-5.0989,-5.0966,-5.0996,-5.0988,-5.1042,-5.1037,-5.123,-5.1251,-5.1062,-5.1064,-5.1065,0,-5.1217,-5.1244,-5.1202,-5.1207,-5.1192,-5.1202,-5.1201,-5.1143,-5.1145,-5.1122,-5.1144,-5.1146,-5.1144,-5.1161,-5.1123,-5.1123,-5.1097,-5.1165,-5.1097,-5.1111,-5.1096,-5.1094,-5.1096,-5.1179,-5.1181,-5.1183,-5.1185,0,-5.138,-5.1355,-5.1356,-5.135,-5.1351,-5.1343,-5.1331,-5.134,-5.1276,-5.1283,-5.1289,-5.1288,-5.1287,-5.129,-5.1282,-5.1265,-5.1214,-5.1207,-5.1219,-5.1233,-5.1248,-5.1239,-5.1032,-5.1202,-5.12,-5.1199,-5.1198,-5.1197,-5.1505,-5.1526,-5.1499,-5.1503,-5.1488,-5.1478,-5.1493,-5.1461,-5.1466,-5.1459,-5.1425,-5.1438,-5.1416,-5.14,-5.1387,-5.1397,-5.1364,-5.1382,-5.1386,-5.1391,-5.1399,-5.125,-5.1396,-5.1395,-5.1395,-5.1394,-5.1394,0,-5.1663,-5.1642,-5.1647,-5.1632,-5.1635,-5.1588,-5.1573,-5.1579,-5.159,-5.1574,-5.1573,-5.1581,-5.1584,-5.1548,-5.1546,-5.1561,-5.1538,-5.1562,-5.1559,-5.1556,-5.1429,-5.1418,-5.1581,-5.1581,-5.1581,-5.1581,-5.1581,-5.1581,-5.1745,-5.1777,-5.1749,-5.1773,-5.1752,-5.1763,-5.1758,-5.1749,-5.1735,-5.1747,-5.1749,-5.1725,-5.17,-5.1696,-5.1697,-5.1686,-5.1688,-5.172,-5.1701,-5.1583,-5.1565,-5.1547,-5.1536,-5.1721,-5.1721,-5.1826,-5.1827,-5.1828]},{"header":{"parameterUnit":"m.s-1","parameterCategory":1,"la1":30.2991,"la2":30.254,"lo1":-89.0895,"lo2":-89.0444,"dy":0.0017,"dx":0.0017,"nx":28,"ny":28,"refTime":"2024-06-02T09:00:00:Z","depth":0,"parameterNumber":3,"parameterNumberName":"V-component_of_WINDS"},"data":[0,0,0,0,0,0,0,0,0,0,0,0,0,0,0,0,0,0,0,0,0,0,0,0,0,0,0,0,0,0,0,0,0,0,0,0,0,0,0,0,0,0,0,0,0,0,0,0,0,0,0,0,0,0,0,0,0,0,0.0698,0.0698,0,0.069,0.069,0.069,0.0714,0.0715,0.0716,0.0717,0.0705,0.0704,0.0703,0,0,0,0,0,0,0,0,0,0,0,0,0,0.0733,0.0732,0.0698,0.0698,0.0698,0.069,0.069,0.069,0.0714,0.0715,0.0716,0.0717,0.0705,0.0704,0.0703,0,0,0,0,0,0,0,0,0,0,0,0,0,0.072,0.0732,0.0698,0.0709,0.071,0.069,0.069,0.069,0.0714,0.0715,0.0716,0.0717,0.0705,0.0704,0.0702,0.067,0,0,0.0698,0.0697,0,0,0,0,0,0,0,0,0.0721,0.0719,0.0708,0.0708,0.0709,0.0704,0.0698,0.0683,0.0714,0.0712,0.0717,0.0718,0.0703,0.0702,0.0698,0.0669,0.0669,0.0698,0.0697,0.0696,0.0695,0,0,0,0,0,0,0,0.0722,0.0719,0.0695,0.0707,0.0709,0.0714,0.0713,0.0695,0.0701,0.0713,0.0714,0.0713,0.0704,0.0699,0.0698,0.0669,0.0698,0.0696,0.0695,0.0695,0.0614,0.0613,0,0,0,0,0,0,0.0722,0.072,0.0695,0.0695,0.0718,0.0712,0.0712,0.0705,0.0702,0.0702,0.0712,0.0714,0.0701,0.07,0.0697,0.066,0.0696,0.0694,0.0694,0.0615,0.0614,0.0613,0,0,0,0,0,0,0.0722,0.0719,0.0695,0.0708,0.0705,0.0711,0.0702,0.0704,0.0699,0.0702,0.0703,0.0707,0.0702,0.07,0.0677,0.066,0.0694,0.0692,0.0617,0.0615,0.0613,0.0585,0,0,0,0,0,0,0.0723,0.0719,0.0707,0.0707,0.0704,0.0676,0.0701,0.0703,0.0697,0.07,0.0696,0.0697,0.0703,0.0679,0.0676,0.0659,0.0691,0.0618,0.0616,0.0614,0.0587,0.0582,0.0578,0,0,0,0,0,0.0724,0.0699,0.0707,0.0703,0.069,0.0675,0.0673,0.0681,0.0696,0.0684,0.0685,0.0697,0.0663,0.0677,0.0673,0.0655,0.0619,0.0617,0.0614,0.0589,0.0583,0.0578,0,0,0,0,0,0,0.0695,0.0699,0.0708,0.0681,0.0678,0.0679,0.0664,0.0674,0.0666,0.0668,0.0678,0.0677,0.0653,0.0652,0.0667,0.0624,0.0643,0.064,0.0626,0.062,0.0615,0.0616,0.069,0,0,0,0,0,0.0686,0.0674,0.0677,0.0654,0.0652,0.0658,0.0652,0.0659,0.0655,0.0653,0.0653,0.0648,0.0636,0.0628,0.0617,0.0587,0.0587,0.0573,0.0568,0.0564,0.0561,0.0546,0.054,0.0604,0.0604,0.0604,0,0,0.0666,0.0666,0.0658,0.0648,0.0646,0.0633,0.0656,0.0641,0.0632,0.065,0.063,0.0629,0.0624,0.0598,0.0587,0.0596,0.0543,0.0561,0.0558,0.0556,0.0542,0.0536,0.0531,0.0602,0.0602,0.0602,0,0,0.0623,0.0623,0.0604,0.0601,0.0599,0.0603,0.0599,0.0599,0.06,0.0579,0.0593,0.0582,0.0561,0.0557,0.0552,0.051,0.052,0.0506,0.0481,0.0466,0.0461,0.0457,0.0442,0.0437,0.0502,0.0502,0.0502,0,0.0599,0.0581,0.0592,0.0577,0.0572,0.059,0.057,0.0567,0.056,0.0557,0.0568,0.0543,0.0541,0.0515,0.0505,0.05,0.0495,0.0506,0.0461,0.0457,0.0453,0.0439,0.0433,0.0501,0.0501,0.0501,0.0501,0,0.0551,0.0538,0.0523,0.0518,0.0511,0.0494,0.0502,0.0494,0.0502,0.0505,0.0484,0.0483,0.0472,0.0467,0.0473,0.0441,0.0448,0.046,0.0479,0.0445,0.0432,0.0427,0.0498,0.0499,0.0499,0.05,0,0,0.0489,0.0492,0.0486,0.0484,0.0483,0.0473,0.0456,0.0448,0.0441,0.0435,0.0422,0.0405,0.0417,0.0411,0.0418,0.0405,0.0372,0.0419,0.0419,0.041,0.0337,0.0328,0.0322,0.0379,0.0378,0.0378,0.0338,0,0.0448,0.0421,0.0431,0.0403,0.0391,0.0409,0.0394,0.0392,0.0395,0.0385,0.0387,0.0375,0.0392,0.0389,0.0377,0.0379,0.0357,0.0382,0.0366,0.0365,0.0367,0.0315,0.0305,0.0268,0.0333,0.0332,0.0331,0,0.0396,0.0391,0.0362,0.0364,0.0359,0.0346,0.034,0.033,0.0328,0.0331,0.0325,0.0335,0.0319,0.0339,0.0316,0.0332,0.0327,0.0327,0.0325,0.0324,0.0346,0.0313,0.0256,0.025,0.0323,0.0324,0.0325,0,0.0354,0.034,0.0321,0.0319,0.032,0.0311,0.0311,0.031,0.0304,0.0298,0.0295,0.0286,0.0281,0.0274,0.0281,0.0295,0.0258,0.0278,0.0259,0.0259,0.025,0.0251,0.0192,0.0246,0.0247,0.0247,0.0247,0,0.0307,0.0289,0.0303,0.0291,0.0271,0.0283,0.0262,0.0264,0.0263,0.0252,0.0266,0.0255,0.0265,0.0255,0.026,0.0241,0.0238,0.024,0.0242,0.0239,0.0239,0.0235,0.0238,0.0245,0.0246,0.0246,0.0246,0,0.0257,0.0266,0.0246,0.025,0.0251,0.0236,0.0239,0.0228,0.0232,0.0218,0.0215,0.0222,0.021,0.0217,0.0205,0.0209,0.0184,0.0189,0.0185,0.0186,0.0168,0.0169,0.0105,0.0097,0.0156,0.0155,0.0155,0,0.0227,0.0214,0.0216,0.0211,0.021,0.02,0.0195,0.0206,0.02,0.0197,0.0187,0.0177,0.017,0.0151,0.0154,0.0145,0.015,0.0128,0.0149,0.0147,0.015,0.0151,0.015,0.0124,0.0123,0.0122,0.0122,0,0.0172,0.0177,0.017,0.0165,0.0158,0.0154,0.0151,0.0145,0.0156,0.0149,0.0138,0.0133,0.0122,0.0112,0.0104,0.0104,0.0114,0.0116,0.0111,0.0108,0.0107,0.0108,0.0174,0.0117,0.0117,0.0118,0.0118,0.0118,0.0132,0.0121,0.0122,0.0113,0.0112,0.0109,0.01,0.0104,0.0095,0.0088,0.0095,0.0082,0.0081,0.0072,0.007,0.006,0.0069,0.0062,0.006,0.0059,0.0056,0.0108,0.0059,0.0059,0.0059,0.0059,0.0059,0,0.0078,0.008,0.0072,0.0068,0.0061,0.0074,0.0071,0.0064,0.0054,0.0052,0.0045,0.0033,0.0024,0.0027,0.0019,0.001,0.0015,0.0008,0.0008,0.0008,0.0049,0.0054,0.0004,0.0004,0.0004,0.0004,0.0004,0.0004,0.005,0.0033,0.0038,0.002,0.0022,0.0011,0.0008,0.0006,0.0004,-0.0009,-0.0016,-0.0013,-0.0013,-0.0021,-0.0029,-0.0028,-0.0032,-0.0041,-0.0038,-0.0,0.0005,0.001,0.0015,-0.0042,-0.0042,-0.0078,-0.0078,-0.0078]}]]